Home   Weather   USA   Appleton   Past weeks
Flag for USA

Past Weather in Appleton, Wisconsin, USA — Yesterday and Last 2 Weeks

Currently: 66 °F. Overcast. (Weather station: Appleton / Outagamie, USA). See more current weather

Past Weather in Appleton — Graph

°F

Appleton Temperature Yesterday

Maximum temperature yesterday: 82 °F (at 12:15 am)
Minimum temperature yesterday: 70 °F (at 10:55 pm)
Average temperature yesterday: 77 °F

High & Low Weather Summary for the Past Weeks

 TemperatureHumidityPressure
High91 °F (Jun 18, 4:45 pm)100% (Jun 14, 8:45 pm)30.38 "Hg (Jun 14, 8:45 pm)
Low46 °F (Jun 10, 5:15 am)27% (Jun 10, 4:45 pm)29.52 "Hg (Jun 5, 6:45 pm)
Average68 °F68%29.90 "Hg
* Reported Jun 5 2:45 pm — Jun 20 2:45 pm, Appleton. Weather by CustomWeather, © 2024

Note: Actual official high and low records may vary slightly from our data, if they occured in-between our weather recording intervals... More about our weather records

Appleton Weather History for the Previous 24 Hours

Scroll right to see more
 ConditionsComfort  
Time TempWeatherWind HumidityBarometerVisibility
2:45 pm
Thu, Jun 20
66 °FLow clouds.12 mph73%30.35 "Hg10 mi
1:45 pm63 °FLow clouds.9 mph83%30.36 "Hg10 mi
12:45 pm63 °FLow clouds.10 mph88%30.37 "Hg10 mi
11:45 am63 °FMostly cloudy.8 mph88%30.38 "Hg10 mi
10:45 am63 °FMostly cloudy.9 mph83%30.38 "Hg10 mi
9:45 am61 °FLight rain. Fog.9 mph88%30.38 "Hg4 mi
8:45 am61 °FLight rain. Fog.12 mph88%30.37 "Hg5 mi
7:45 am61 °FLight rain. Fog.10 mph88%30.36 "Hg5 mi
6:45 am61 °FLight rain. Fog.9 mph94%30.36 "Hg5 mi
5:45 am63 °FDrizzle. Fog.14 mph88%30.34 "Hg5 mi
5:30 am63 °FLight rain. Low clouds.14 mph94%30.33 "Hg7 mi
5:15 am61 °FLight rain. Low clouds.12 mph100%30.33 "Hg7 mi
4:55 am63 °FLight rain. Mostly cloudy.15 mph94%30.32 "Hg10 mi
4:35 am63 °FDrizzle. Low clouds.10 mph94%30.33 "Hg10 mi
3:55 am63 °FLight rain. Low clouds.13 mph94%30.33 "Hg10 mi
3:35 am63 °FDrizzle. Low clouds.14 mph94%30.32 "Hg10 mi
2:55 am64 °FRain. Low clouds.14 mph94%30.31 "Hg7 mi
2:35 am68 °FLight rain. Low clouds.16 mph94%30.31 "Hg7 mi
2:15 am70 °FDrizzle. Mostly cloudy.7 mph88%30.30 "Hg10 mi
1:55 am70 °FDrizzle. Overcast.5 mph94%30.29 "Hg10 mi
1:35 am70 °FPartly cloudy.5 mph88%30.29 "Hg10 mi
1:15 am70 °FPassing clouds.3 mph88%30.29 "Hg10 mi
12:55 am68 °FMostly cloudy.3 mph94%30.29 "Hg10 mi
12:35 am70 °FPartly cloudy.No wind88%30.29 "Hg10 mi
12:15 am70 °FPassing clouds.No wind88%30.29 "Hg10 mi
11:55 pm
Wed, Jun 19
70 °FPartly cloudy.3 mph88%30.28 "Hg10 mi
11:35 pm70 °FPassing clouds.No wind88%30.29 "Hg10 mi
11:15 pm70 °FMostly cloudy.No wind88%30.28 "Hg10 mi
10:55 pm70 °FMostly cloudy.6 mph88%30.27 "Hg10 mi
9:45 pm72 °FOvercast.3 mph88%30.27 "Hg10 mi
8:45 pm72 °FMostly cloudy.6 mph94%30.24 "Hg10 mi
7:45 pm73 °FMostly cloudy.5 mph94%30.24 "Hg10 mi
6:45 pm75 °FCloudy.5 mph89%30.24 "Hg10 mi
5:45 pm73 °FFog.No wind94%30.23 "Hg6 mi
4:45 pm73 °FDrizzle. Fog.3 mph94%30.22 "Hg6 mi
4:35 pm73 °FDrizzle. Fog.5 mph94%30.22 "Hg6 mi
Weather by CustomWeather, © 2024

See weather overview